{"data":{"norad_id":67701,"epoch":"2026-05-25T01:35:28.307040Z","epoch_age_seconds":79370,"freshness":"FRESH","line1":"1 67701U 26025J   26145.06629985  .00019044  00000+0  59043-3 0  9990","line2":"2 67701  97.2833 256.6212 0000674  91.9129 268.2191 15.33460862 17721","mean_motion":15.33460862,"eccentricity":6.74e-5,"inclination_deg":97.2833,"raan_deg":256.6212,"arg_perigee_deg":91.9129,"mean_anomaly_deg":268.2191,"bstar":0.00059043,"rev_number":1772,"period_min":93.905233298351,"perigee_km":465.03471986991,"apogee_km":465.95724159571,"semimajor_km":6843.6329807328,"source":"CELESTRAK","updated_at":"2026-05-25T13:38:21.664319Z"}}